Bad Axe, MI

5:40 PM EDT on September 25, 2017 (GMT -0400)
Huron County Memorial

Weather History for KBAX - July, 2012

Change the Weather History Date:

Sunday, July 29, 2012

  Actual Average (KP58) Record (KP58)
Temperature  
Mean Temperature 65 °F -  
Max Temperature 82 °F 76 °F 95 °F (2000)
Min Temperature 48 °F 61 °F 52 °F (2014)
Growing Degree Days 15 (Base 50)    
Moisture  
Dew Point 53 °F    
Average Humidity 67    
Maximum Humidity 100    
Minimum Humidity 35    
Precipitation  
Precipitation 0.00 in - - ()
Sea Level Pressure  
Sea Level Pressure 30.09 in    
Wind  
Wind Speed 1 mph (SSW)    
Max Wind Speed 8 mph    
Max Gust Speed -    
Visibility 10 miles    
Events      
Averages and records for this station are not official NWS values.
T = Trace of Precipitation, MM = Missing Value Source: NWS Daily Summary

Daily Weather History Graph

Daily Weather History Graph

Search for Another Location

Airport or City:

Trip Planner

Search our weather history database for the weather conditions in past years. The results will help you decide how hot, cold, wet, or windy it might be!

Date:

Astronomy

Jul. 29, 2012 Rise Set
Actual Time 6:18 AM EDT 8:58 PM EDT
Civil Twilight 5:44 AM EDT 9:31 PM EDT
Nautical Twilight 5:03 AM EDT 10:12 PM EDT
Astronomical Twilight 4:15 AM EDT 10:59 PM EDT
Moon 6:05 PM EDT (7/29) 2:28 AM EDT (7/29)
Length of Visible Light 15h 46m
Length of Day
14h 40m
Waxing Gibbous, 85% of the Moon is Illuminated
Jul 29
Waxing Gibbous
Aug 1
Full
Aug 9
Last Quarter
Aug 17
New
Aug 24
First Quarter

Hourly Weather History & Observations

Time (EDT) Temp. Heat Index Dew Point Humidity Pressure Visibility Wind Dir Wind Speed Gust Speed Precip Events Conditions
12:13 AM 55.0 °F - 53.6 °F 95% 30.11 in 10.0 mi Calm Calm - N/A   Clear
12:34 AM 54.5 °F - 53.1 °F 95% 30.11 in 10.0 mi Calm Calm - N/A   Clear
12:54 AM 54.3 °F - 52.9 °F 95% 30.11 in 10.0 mi Calm Calm - N/A   Clear
1:14 AM 54.3 °F - 53.1 °F 95% 30.10 in 10.0 mi Calm Calm - N/A   Clear
1:34 AM 54.0 °F - 52.7 °F 95% 30.10 in 10.0 mi Calm Calm - N/A   Clear
1:54 AM 52.9 °F - 51.8 °F 96% 30.10 in 10.0 mi Calm Calm - N/A   Clear
2:14 AM 52.9 °F - 52.0 °F 97% 30.09 in 10.0 mi Calm Calm - N/A   Clear
2:34 AM 52.9 °F - 52.0 °F 97% 30.09 in 10.0 mi Calm Calm - N/A   Clear
2:54 AM 52.2 °F - 51.3 °F 97% 30.10 in 10.0 mi Calm Calm - N/A   Clear
3:14 AM 52.0 °F - 51.1 °F 97% 30.09 in 10.0 mi Calm Calm - N/A   Clear
3:34 AM 50.9 °F - 50.2 °F 97% 30.09 in 10.0 mi Calm Calm - N/A   Clear
3:54 AM 50.9 °F - 50.2 °F 97% 30.09 in 10.0 mi Calm Calm - N/A   Clear
4:14 AM 51.1 °F - 50.5 °F 98% 30.10 in 4.0 mi Calm Calm - N/A   Clear
4:19 AM 50.9 °F - 50.2 °F 97% 30.10 in 10.0 mi Calm Calm - N/A   Clear
4:50 AM 50.0 °F - 49.3 °F 97% 30.09 in 10.0 mi Calm Calm - N/A   Clear
5:05 AM 50.0 °F - 48.2 °F 94% 30.10 in 3.0 mi Calm Calm - N/A   Clear
5:25 AM 50.0 °F - 50.0 °F 100% 30.10 in 10.0 mi Calm Calm - N/A   Clear
5:37 AM 50.5 °F - 50.0 °F 98% 30.10 in 7.0 mi Calm Calm - N/A   Clear
5:54 AM 49.3 °F - 48.7 °F 98% 30.11 in 10.0 mi Calm Calm - N/A   Scattered Clouds
6:15 AM 48.9 °F - 48.4 °F 98% 30.11 in 7.0 mi Calm Calm - N/A   Clear
6:34 AM 48.7 °F - 48.2 °F 98% 30.11 in 10.0 mi Calm Calm - N/A   Clear
6:54 AM 49.5 °F - 49.1 °F 99% 30.11 in 10.0 mi Calm Calm - N/A   Clear
7:14 AM 51.6 °F - 51.3 °F 99% 30.12 in 10.0 mi Calm Calm - N/A   Clear
7:34 AM 54.5 °F - 54.3 °F 99% 30.12 in 10.0 mi Calm Calm - N/A   Clear
7:54 AM 57.4 °F - 57.0 °F 99% 30.12 in 10.0 mi Calm Calm - N/A   Clear
8:14 AM 60.3 °F - 59.4 °F 97% 30.12 in 10.0 mi Calm Calm - N/A   Clear
8:34 AM 64.4 °F - 60.8 °F 88% 30.12 in 10.0 mi Calm Calm - N/A   Clear
8:54 AM 67.3 °F - 61.5 °F 82% 30.12 in 10.0 mi Calm Calm - N/A   Clear
9:14 AM 70.0 °F - 61.3 °F 74% 30.12 in 10.0 mi Calm Calm - N/A   Clear
9:34 AM 72.1 °F - 52.2 °F 49% 30.12 in 10.0 mi SSW 3.5 mph - N/A   Clear
9:54 AM 73.6 °F - 56.3 °F 55% 30.12 in 10.0 mi WSW 3.5 mph - N/A   Clear
10:14 AM 74.5 °F - 52.0 °F 45% 30.12 in 10.0 mi West 3.5 mph - N/A   Clear
10:55 AM 76.6 °F - 49.1 °F 38% 30.13 in 10.0 mi West 4.6 mph - N/A   Clear
11:14 AM 77.4 °F - 50.0 °F 38% 30.13 in 10.0 mi Calm Calm - N/A   Clear
11:34 AM 77.0 °F - 49.1 °F 37% 30.13 in 10.0 mi WSW 3.5 mph - N/A   Clear
11:54 AM 77.5 °F - 49.3 °F 37% 30.12 in 10.0 mi Calm Calm - N/A   Clear
12:14 PM 78.4 °F - 50.4 °F 37% 30.12 in 10.0 mi NW 5.8 mph - N/A   Clear
12:34 PM 78.1 °F - 51.3 °F 39% 30.12 in 10.0 mi North 3.5 mph - N/A   Scattered Clouds
12:54 PM 78.4 °F - 52.0 °F 40% 30.11 in 10.0 mi NW 6.9 mph - N/A   Scattered Clouds
1:14 PM 79.7 °F - 51.3 °F 37% 30.11 in 10.0 mi West 3.5 mph - N/A   Clear
1:35 PM 79.5 °F - 49.8 °F 35% 30.10 in 10.0 mi Calm Calm - N/A   Clear
1:54 PM 78.8 °F - 52.0 °F 39% 30.10 in 10.0 mi WNW 4.6 mph - N/A   Clear
2:14 PM 81.0 °F - 52.5 °F 37% 30.09 in 10.0 mi North 5.8 mph - N/A   Clear
2:35 PM 80.6 °F - 51.3 °F 36% 30.08 in 10.0 mi Calm Calm - N/A   Mostly Cloudy
2:54 PM 81.3 °F - 52.0 °F 36% 30.08 in 10.0 mi West 4.6 mph - N/A   Mostly Cloudy
3:14 PM 82.2 °F - 51.6 °F 35% 30.07 in 10.0 mi SW 3.5 mph - N/A   Overcast
3:35 PM 81.7 °F - 51.6 °F 35% 30.07 in 10.0 mi West 4.6 mph - N/A   Mostly Cloudy
3:54 PM 81.9 °F - 52.3 °F 36% 30.07 in 10.0 mi WNW 5.8 mph - N/A   Mostly Cloudy
4:14 PM 81.3 °F 80.7 °F 53.2 °F 38% 30.07 in 10.0 mi North 6.9 mph - N/A   Overcast
4:35 PM 81.0 °F - 51.6 °F 36% 30.06 in 10.0 mi NNW 3.5 mph - N/A   Overcast
4:54 PM 78.6 °F - 55.2 °F 44% 30.06 in 10.0 mi ENE 6.9 mph - N/A   Overcast
5:14 PM 78.8 °F - 55.4 °F 44% 30.06 in 10.0 mi ESE 3.5 mph - N/A   Overcast
5:35 PM 78.8 °F - 54.9 °F 44% 30.05 in 10.0 mi East 5.8 mph - N/A   Scattered Clouds
5:54 PM 78.4 °F - 55.8 °F 45% 30.05 in 10.0 mi SSE 8.1 mph - N/A   Scattered Clouds
6:14 PM 77.7 °F - 55.2 °F 46% 30.05 in 10.0 mi SE 4.6 mph - N/A   Clear
6:35 PM 77.2 °F - 54.5 °F 45% 30.05 in 10.0 mi SSE 4.6 mph - N/A   Clear
6:54 PM 77.4 °F - 54.7 °F 45% 30.05 in 10.0 mi SE 5.8 mph - N/A   Clear
7:14 PM 76.5 °F - 54.5 °F 46% 30.05 in 10.0 mi ESE 5.8 mph - N/A   Clear
7:35 PM 74.8 °F - 55.4 °F 51% 30.04 in 10.0 mi SE 3.5 mph - N/A   Clear
7:54 PM 73.6 °F - 55.4 °F 53% 30.04 in 10.0 mi SE 3.5 mph - N/A   Clear
8:15 PM 72.5 °F - 55.4 °F 55% 30.04 in 10.0 mi SSE 3.5 mph - N/A   Clear
8:34 PM 71.6 °F - 54.1 °F 54% 30.04 in 10.0 mi SSE 4.6 mph - N/A   Clear
8:54 PM 70.2 °F - 54.1 °F 57% 30.04 in 10.0 mi SSE 5.8 mph - N/A   Clear
9:15 PM 68.2 °F - 56.3 °F 66% 30.04 in 10.0 mi South 5.8 mph - N/A   Clear
9:34 PM 67.6 °F - 54.5 °F 63% 30.04 in 10.0 mi South 5.8 mph - N/A   Clear
9:54 PM 67.1 °F - 53.6 °F 62% 30.04 in 10.0 mi South 4.6 mph - N/A   Clear
10:15 PM 66.4 °F - 54.0 °F 64% 30.04 in 10.0 mi South 4.6 mph - N/A   Clear
10:34 PM 65.7 °F - 54.5 °F 67% 30.04 in 10.0 mi Calm Calm - N/A   Clear
10:54 PM 66.4 °F - 54.0 °F 64% 30.04 in 10.0 mi Calm Calm - N/A   Clear
11:15 PM 66.2 °F - 53.8 °F 64% 30.04 in 10.0 mi Calm Calm - N/A   Clear
11:34 PM 65.5 °F - 53.2 °F 65% 30.04 in 10.0 mi Calm Calm - N/A   Clear
11:54 PM 64.6 °F - 53.2 °F 67% 30.04 in 10.0 mi Calm Calm - N/A   Clear